FW5152 Weather Reports


Display with metric or nautical units.
time (UTC)temp
F
wind
direction
speed
MPH
gust
MPH
rain 1hr
in
rain 24hr
in
rain mn
in
humidity
%
barometer
mb
20191020160455 59 250 0.0 1.0 0.00 0.00 0.00 75 1011.5
20191020155454 58 250 0.0 1.0 0.00 0.00 0.00 77 1011.5
20191020154453 57 249 0.0 1.0 0.00 0.00 0.00 78 1011.5
20191020153454 57 249 0.0 0.0 0.00 0.00 0.00 80 1011.3
20191020152454 56 248 0.0 0.0 0.00 0.00 0.00 83 1011.3
20191020151453 54 249 0.0 0.0 0.00 0.00 0.00 87 1011.2
20191020150453 53 253 0.0 0.0 0.00 0.00 0.00 87 1011.2
20191020145452 52 253 0.0 0.0 0.00 0.00 0.00 90 1011.2
20191020144451 51 253 0.0 0.0 0.00 0.00 0.00 91 1011.1
20191020143449 50 253 0.0 0.0 0.00 0.00 0.00 90 1011.2
20191020142450 50 253 0.0 0.0 0.00 0.00 0.00 91 1011.1
20191020141449 49 252 0.0 0.0 0.00 0.00 0.00 91 1011.0
20191020140450 49 252 0.0 0.0 0.00 0.00 0.00 91 1010.9
20191020135448 49 253 0.0 0.0 0.00 0.00 0.00 92 1010.8
20191020134447 49 253 0.0 0.0 0.00 0.00 0.00 92 1011.0
20191020133447 49 253 0.0 0.0 0.00 0.00 0.00 93 1010.7
20191020132448 49 124 0.0 0.0 0.00 0.00 0.00 93 1010.5
20191020131447 49 124 0.0 0.0 0.00 0.00 0.00 93 1010.5
20191020130447 48 124 0.0 0.0 0.00 0.00 0.00 93 1010.2
20191020125448 48 124 0.0 0.0 0.00 0.00 0.00 93 1010.0
20191020124447 48 122 0.0 0.0 0.00 0.00 0.00 93 1009.6
20191020123447 48 122 0.0 0.0 0.00 0.00 0.00 93 1009.5
20191020122448 48 122 0.0 0.0 0.00 0.00 0.00 93 1009.5
20191020121447 48 123 0.0 0.0 0.00 0.00 0.00 93 1009.4
20191020120448 48 122 0.0 0.0 0.00 0.00 0.00 93 1009.3
20191020115447 48 122 0.0 0.0 0.00 0.00 0.00 93 1009.1
20191020114447 48 122 0.0 0.0 0.00 0.00 0.00 93 1009.1
20191020113448 48 123 0.0 0.0 0.00 0.00 0.00 93 1009.1
20191020112447 48 122 0.0 0.0 0.00 0.00 0.00 93 1009.0
20191020111447 48 122 0.0 0.0 0.00 0.00 0.00 93 1009.1
20191020110444 48 133 0.0 0.0 0.00 0.00 0.00 93 1009.0
20191020105444 48 132 0.0 1.0 0.00 0.00 0.00 93 1009.0
20191020104441 48 132 0.0 1.0 0.00 0.00 0.00 93 1009.0
20191020103441 48 174 0.0 0.0 0.00 0.00 0.00 93 1009.0
20191020102439 48 174 0.0 0.0 0.00 0.00 0.00 94 1009.0
20191020101439 47 176 0.0 1.0 0.00 0.00 0.00 94 1009.0
20191020100439 47 176 0.0 2.0 0.00 0.00 0.00 94 1009.0
20191020095439 47 283 0.0 2.0 0.00 0.00 0.00 94 1008.7
20191020094439 47 108 0.0 0.0 0.00 0.00 0.00 94 1008.5
20191020093437 47 108 0.0 0.0 0.00 0.00 0.00 94 1008.4
20191020092437 47 93 0.0 0.0 0.00 0.00 0.00 94 1008.0
20191020091438 47 93 0.0 1.0 0.00 0.00 0.00 94 1008.0
20191020090436 46 93 0.0 1.0 0.00 0.00 0.00 94 1007.9
20191020085435 46 93 0.0 1.0 0.00 0.00 0.00 94 1007.9
20191020084435 46 93 0.0 1.0 0.00 0.00 0.00 94 1007.8
20191020083435 46 107 0.0 0.0 0.00 0.00 0.00 94 1008.0
20191020082435 46 107 0.0 1.0 0.00 0.00 0.00 94 1008.1
20191020081435 46 107 0.0 1.0 0.00 0.00 0.00 94 1008.1
20191020080433 46 108 0.0 0.0 0.00 0.00 0.00 94 1008.2
20191020075433 46 109 0.0 0.0 0.00 0.00 0.00 94 1008.1
20191020074434 46 108 0.0 0.0 0.00 0.00 0.00 94 1008.1
20191020073433 46 108 0.0 0.0 0.00 0.00 0.00 93 1008.4
20191020072432 46 108 0.0 0.0 0.00 0.00 0.00 93 1008.4
20191020071432 46 108 0.0 0.0 0.00 0.00 0.00 93 1008.4
20191020070431 46 108 0.0 0.0 0.00 0.00 0.00 93 1008.5
20191020065430 46 108 0.0 0.0 0.00 0.00 0.00 92 1008.5
20191020064430 46 108 0.0 0.0 0.00 0.00 0.00 92 1008.5
20191020063430 47 108 0.0 0.0 0.00 0.00 0.00 92 1008.6
20191020062428 47 108 0.0 1.0 0.00 0.00 0.00 92 1008.5
20191020061429 47 110 0.0 0.0 0.00 0.00 0.00 91 1008.5
20191020060427 47 110 0.0 1.0 0.00 0.00 0.00 91 1008.5
20191020055427 47 110 0.0 1.0 0.00 0.00 0.00 91 1008.7
20191020054427 47 110 0.0 0.0 0.00 0.00 0.00 90 1008.7
20191020053432 48 110 0.0 0.0 0.00 0.00 0.00 90 1008.7
20191020052425 48 110 0.0 0.0 0.00 0.00 0.00 89 1008.8
20191020051425 48 110 0.0 1.0 0.00 0.00 0.00 89 1008.8
20191020050423 48 110 0.0 1.0 0.00 0.00 0.00 89 1008.8
20191020045420 48 110 0.0 0.0 0.00 0.00 0.00 89 1008.9
20191020044420 48 110 0.0 0.0 0.00 0.00 0.00 89 1008.9
20191020043420 47 110 0.0 0.0 0.00 0.00 0.00 89 1009.0
20191020042420 47 110 0.0 0.0 0.00 0.00 0.00 89 1009.2
20191020041421 47 110 0.0 0.0 0.00 0.00 0.00 89 1009.2
20191020040418 46 110 0.0 0.0 0.00 0.00 0.00 90 1009.2
20191020035417 46 110 0.0 0.0 0.00 0.00 0.00 91 1009.3
20191020034417 45 110 0.0 0.0 0.00 0.00 0.00 90 1009.4
20191020033417 45 110 0.0 0.0 0.00 0.00 0.00 90 1009.5
20191020032416 45 110 0.0 0.0 0.00 0.00 0.00 90 1009.5
20191020031415 44 110 0.0 0.0 0.00 0.00 0.00 91 1009.5
20191020030414 44 110 0.0 0.0 0.00 0.00 0.00 90 1009.5
20191020025414 44 110 0.0 0.0 0.00 0.00 0.00 89 1009.6
20191020024415 44 110 0.0 0.0 0.00 0.00 0.00 90 1009.6
20191020023415 44 110 0.0 0.0 0.00 0.00 0.00 88 1009.7
20191020022412 44 110 0.0 0.0 0.00 0.00 0.00 88 1009.8
20191020021413 44 110 0.0 0.0 0.00 0.00 0.00 87 1009.7
20191020020413 45 110 0.0 0.0 0.00 0.00 0.00 87 1009.7
20191020015413 45 110 0.0 0.0 0.00 0.00 0.00 86 1009.9
20191020014413 46 110 0.0 0.0 0.00 0.00 0.00 86 1010.0
20191020013412 46 110 0.0 0.0 0.00 0.00 0.00 85 1009.7
20191020012415 46 110 0.0 0.0 0.00 0.00 0.00 85 1009.6
20191020011410 46 110 0.0 0.0 0.00 0.00 0.00 84 1009.7
20191020010408 46 110 0.0 0.0 0.00 0.00 0.00 83 1009.7
20191020005408 47 110 0.0 0.0 0.00 0.00 0.00 83 1009.6
20191020004408 47 110 0.0 0.0 0.00 0.00 0.00 83 1009.7
20191020003408 47 110 0.0 0.0 0.00 0.00 0.00 80 1009.8
20191020002409 48 110 0.0 0.0 0.00 0.00 0.00 80 1009.5
20191020001406 48 110 0.0 0.0 0.00 0.00 0.00 80 1009.6
20191020000404 48 110 0.0 0.0 0.00 0.00 0.00 78 1009.5
20191019235404 49 110 0.0 0.0 0.00 0.00 0.00 78 1009.4
20191019234405 49 110 0.0 0.0 0.00 0.00 0.00 75 1009.4
20191019233405 50 110 0.0 0.0 0.00 0.00 0.00 74 1009.5
20191019232403 50 110 0.0 0.0 0.00 0.00 0.00 76 1009.5
20191019231403 51 110 0.0 1.0 0.00 0.00 0.00 74 1009.4
20191019230403 51 110 0.0 1.0 0.00 0.00 0.00 73 1009.5
20191019225402 52 110 0.0 0.0 0.00 0.00 0.00 72 1009.7
20191019224402 53 110 0.0 0.0 0.00 0.00 0.00 70 1009.6
20191019223403 54 110 0.0 0.0 0.00 0.00 0.00 67 1009.5
20191019222401 54 110 0.0 0.0 0.00 0.00 0.00 65 1009.5
20191019221401 55 110 0.0 0.0 0.00 0.00 0.00 64 1009.5
20191019220400 56 110 0.0 0.0 0.00 0.00 0.00 63 1009.6
20191019215401 56 110 0.0 1.0 0.00 0.00 0.00 61 1009.7
20191019214400 57 107 0.0 1.0 0.00 0.00 0.00 60 1009.6
20191019213400 58 110 0.0 1.0 0.00 0.00 0.00 56 1009.8
20191019212357 58 134 0.0 2.0 0.00 0.00 0.00 54 1009.7
20191019211356 59 110 0.0 3.0 0.00 0.00 0.00 52 1009.8
20191019210356 59 86 0.0 6.0 0.00 0.00 0.00 54 1009.9
20191019205357 59 110 0.0 4.0 0.00 0.00 0.00 54 1010.0
20191019204356 59 106 0.0 3.0 0.00 0.00 0.00 55 1010.0
20191019203356 58 96 0.0 5.0 0.00 0.00 0.00 56 1010.1
20191019202356 59 96 0.0 1.0 0.00 0.00 0.00 57 1010.1
20191019201354 59 103 0.0 3.0 0.00 0.00 0.00 56 1010.2
20191019200354 59 134 0.0 1.0 0.00 0.00 0.00 57 1010.3
20191019195355 58 23 0.0 2.0 0.00 0.00 0.00 58 1010.6
20191019194352 58 75 0.0 2.0 0.00 0.00 0.00 57 1010.7
20191019193352 58 135 0.0 2.0 0.00 0.00 0.00 57 1010.7
20191019192350 58 107 0.0 3.0 0.00 0.00 0.00 58 1010.9
20191019191351 58 113 0.0 3.0 0.00 0.00 0.00 57 1011.2
20191019190351 58 121 0.0 2.0 0.00 0.00 0.00 57 1011.3
20191019185350 58 121 1.0 4.0 0.00 0.00 0.00 55 1011.3
20191019184350 59 125 1.0 4.0 0.00 0.00 0.00 55 1011.5
20191019183350 59 143 1.0 5.0 0.00 0.00 0.00 55 1011.6
20191019182350 59 140 1.0 3.0 0.00 0.00 0.00 54 1011.8
20191019181348 58 87 1.0 5.0 0.00 0.00 0.00 55 1011.8
20191019180348 58 108 1.0 4.0 0.00 0.00 0.00 54 1012.0
20191019175348 59 85 1.0 4.0 0.00 0.00 0.00 55 1012.1
20191019174348 59 113 1.0 2.0 0.00 0.00 0.00 56 1012.3
20191019173348 59 214 1.0 4.0 0.00 0.00 0.00 56 1012.4
20191019172346 58 115 1.0 3.0 0.00 0.00 0.00 58 1012.7
20191019171351 58 116 1.0 3.0 0.00 0.00 0.00 59 1012.7
20191019170346 57 233 1.0 5.0 0.00 0.00 0.00 59 1013.0
20191019165346 56 120 1.0 4.0 0.00 0.00 0.00 60 1013.1
20191019164346 56 210 0.0 2.0 0.00 0.00 0.00 63 1013.1
20191019163346 55 339 1.0 4.0 0.00 0.00 0.00 62 1013.4
20191019162346 55 105 1.0 3.0 0.00 0.00 0.00 65 1013.6
20191019161345 55 276 1.0 2.0 0.00 0.00 0.00 65 1013.6